This is the latest recevied weather packets stored in our database for station/object S56OA-13. If no packets are shown the sender has not sent any weather packets the latest 10 day(s).
| Time | Temp. | Humidity | Pressure | Rain* | Wind** | Luminosity | Snow |
|---|---|---|---|---|---|---|---|
| 1788223732 | 17.22° C | 43% | 868.9 hPa | - | - | - | - |
| 1788221966 | 17.78° C | 43% | 870.7 hPa | - | - | - | - |
| 1788221931 | 17.78° C | 43% | 870.7 hPa | - | - | - | - |
| 1788220256 | 18.33° C | 42% | 870.7 hPa | - | - | - | - |
| 1788220130 | 18.33° C | 42% | 870.7 hPa | - | - | - | - |
| 1788218329 | 16.67° C | 43% | 867.5 hPa | - | - | - | - |
| 1788216589 | 17.22° C | 42% | 867.2 hPa | - | - | - | - |
| 1788216527 | 17.22° C | 42% | 867.2 hPa | - | - | - | - |
| 1788214727 | 17.78° C | 42% | 869.1 hPa | - | - | - | - |
| 1788212925 | 18.33° C | 42% | 871.5 hPa | - | - | - | - |
| 1788211124 | 18.33° C | 42% | 871.4 hPa | - | - | - | - |
| 1788209323 | 18.33° C | 42% | 871.8 hPa | - | - | - | - |
| 1788207522 | 18.33° C | 42% | 871 hPa | - | - | - | - |
| 1788205721 | 18.89° C | 42% | 873.2 hPa | - | - | - | - |
| 1788203919 | 19.44° C | 42% | 875.4 hPa | - | - | - | - |
| 1788202118 | 20° C | 43% | 876.5 hPa | - | - | - | - |
| 1788200317 | 20.56° C | 43% | 877.6 hPa | - | - | - | - |
| 1788198516 | 21.67° C | 44% | 884.3 hPa | - | - | - | - |
| 1788196711 | 26.11° C | 43% | 898.6 hPa | - | - | - | - |
| 1788194872 | 28.33° C | 44% | 909.6 hPa | - | - | - | - |
| 1788193071 | 32.22° C | 42% | 922.3 hPa | - | - | - | - |
| 1788191270 | 33.33° C | 42% | 928.8 hPa | - | - | - | - |
| 1788189468 | 37.22° C | 38% | 934.6 hPa | - | - | - | - |
| 1788187667 | 37.78° C | 37% | 935.7 hPa | - | - | - | - |
| 1788184043 | 38.89° C | 38% | 944.8 hPa | - | - | - | - |
* Rain since midnight (hover to see other rain measurements)
** Current wind speed in m/s (hover to see current wind gust speed)